Change the Weather History Date:

Saturday, December 10, 2011

  Actual Average Record
Temperature  
Mean Temperature 30 °F 15 °F  
Max Temperature 43 °F 26 °F 54 °F (1987)
Min Temperature 17 °F 5 °F -27 °F (1919)
Degree Days  
Heating Degree Days 35 50  
Month to date heating degree days 463 481  
Since 1 July heating degree days 2228 2643  
Cooling Degree Days 0 0  
Month to date cooling degree days 0 0  
Year to date cooling degree days 452 456  
Moisture  
Dew Point 21 °F    
Average Humidity 71    
Maximum Humidity 92    
Minimum Humidity 49    
Precipitation  
Precipitation 0.00 in 0.02 in 0.72 in (2010)
Month to date precipitation 0.05 0.19  
Year to date precipitation 19.10 13.94  
Sea Level Pressure  
Sea Level Pressure 29.98 in    
Wind  
Wind Speed 9 mph (SW)    
Max Wind Speed 17 mph    
Max Gust Speed 22 mph    
Visibility 10 miles    
Events      
T = Trace of Precipitation, MM = Missing Value Source: NWS Daily Summary

Daily Weather History Graph

Daily Weather History Graph

Search for Another Location

Airport or City:

Trip Planner

Search our weather history database for the weather conditions in past years. The results will help you decide how hot, cold, wet, or windy it might be!

Date:

Astronomy

Dec. 10, 2011 Rise Set
Actual Time 8:33 AM CST 5:00 PM CST
Civil Twilight 7:57 AM CST 5:36 PM CST
Nautical Twilight 7:17 AM CST 6:16 PM CST
Astronomical Twilight 6:40 AM CST 6:54 PM CST
Moon 5:15 PM CST (12/10) 8:37 AM CST (12/10)
Length of Visible Light 9h 39m
Length of Day
8h 26m
Full, 100% of the Moon is Illuminated
Dec 10
Full
Dec 17
Last Quarter
Dec 24
New
Jan 1
First Quarter
Jan 9
Full

Hourly Weather History & Observations

Time (CST) Temp. Windchill Dew Point Humidity Pressure Visibility Wind Dir Wind Speed Gust Speed Precip Events Conditions
12:52 AM 27.0 °F 15.6 °F 19.0 °F 72% 30.11 in 10.0 mi WSW 13.8 mph - N/A   Clear
1:52 AM 24.1 °F 17.0 °F 18.0 °F 77% 30.10 in 10.0 mi SW 5.8 mph - N/A   Clear
2:52 AM 25.0 °F 14.8 °F 19.0 °F 78% 30.10 in 10.0 mi WSW 10.4 mph - N/A   Clear
3:52 AM 27.0 °F 17.3 °F 19.9 °F 75% 30.11 in 10.0 mi WSW 10.4 mph - N/A   Clear
4:52 AM 25.0 °F 18.1 °F 19.0 °F 78% 30.10 in 10.0 mi SSW 5.8 mph - N/A   Clear
5:52 AM 24.1 °F 17.0 °F 19.0 °F 81% 30.10 in 10.0 mi SSW 5.8 mph - N/A   Clear
6:52 AM 25.0 °F 17.1 °F 19.0 °F 78% 30.10 in 10.0 mi SSW 6.9 mph - N/A   Clear
7:52 AM 19.9 °F - 17.1 °F 89% 30.09 in 10.0 mi Calm Calm - N/A   Clear
8:52 AM 17.1 °F - 16.0 °F 96% 30.09 in 10.0 mi Calm Calm - N/A   Clear
9:52 AM 26.1 °F 15.6 °F 19.9 °F 78% 30.07 in 10.0 mi SSW 11.5 mph - N/A   Clear
10:52 AM 30.0 °F 21.1 °F 21.0 °F 69% 30.05 in 10.0 mi SSW 10.4 mph - N/A   Clear
11:52 AM 35.1 °F 27.4 °F 21.0 °F 57% 30.01 in 10.0 mi SSW 10.4 mph - N/A   Clear
12:52 PM 37.0 °F 28.1 °F 21.9 °F 54% 29.96 in 10.0 mi SSW 15.0 mph - N/A   Clear
1:52 PM 39.9 °F 31.4 °F 24.1 °F 53% 29.92 in 10.0 mi SW 16.1 mph - N/A   Clear
2:52 PM 43.0 °F 38.8 °F 24.1 °F 47% 29.88 in 10.0 mi South 6.9 mph - N/A   Clear
3:52 PM 42.1 °F 35.2 °F 25.0 °F 51% 29.84 in 10.0 mi SW 12.7 mph - N/A   Clear
4:52 PM 39.0 °F 34.8 °F 24.1 °F 55% 29.87 in 10.0 mi WSW 5.8 mph - N/A   Clear
5:52 PM 30.9 °F 25.2 °F 23.0 °F 72% 29.87 in 10.0 mi SSW 5.8 mph - N/A   Clear
6:52 PM 28.0 °F 20.0 °F 21.9 °F 78% 29.86 in 10.0 mi SW 8.1 mph - N/A   Clear
7:52 PM 26.1 °F 17.6 °F 21.9 °F 84% 29.86 in 10.0 mi SW 8.1 mph - N/A   Clear
8:52 PM 30.0 °F 21.7 °F 23.0 °F 75% 29.86 in 10.0 mi SW 9.2 mph - N/A   Clear
9:52 PM 28.0 °F 18.6 °F 21.9 °F 78% 29.84 in 10.0 mi SW 10.4 mph - N/A   Clear
10:52 PM 28.0 °F 19.3 °F 21.9 °F 78% 29.83 in 10.0 mi SW 9.2 mph - N/A   Clear
11:52 PM 28.9 °F 22.8 °F 21.9 °F 75% 29.83 in 10.0 mi SSW 5.8 mph - N/A   Clear